Meteo Giornale » Osservazioni meteo Danimarca » Roenne
ore: 23:50 - Osservazioni Meteo Roenne
Lat. 55° 4' N Lon. 14° 45' E Alt. 16 metri s.l.m.
18 °C
Nuvoloso
Temp. 24 Ore
17 °C
19 °C
Ovest
24 Km/h
Dew point 16 °C
Umidità 88 %
Visibilità 10 Km
Il sole sorge alle ore 06:09
Il sole tramonta alle ore 19:52
| Data e Ora | Cielo e Fenomeni | T °C | DP °C | Um. % | Pres. hPa | Vis. km | Vento km/h | |
|---|---|---|---|---|---|---|---|---|
| Ieri h: 23:50 | Nuvoloso | 18 | 16 | 88 | 1014 | 10 | O 24 | |
| Ieri h: 23:20 | Molto Nuvoloso | 18 | 16 | 88 | 1014 | 10 | O 25.9 | |
| Ieri h: 22:50 | Molto Nuvoloso | 18 | 16 | 88 | 1014 | 10 | O 25.9 | |
| Ieri h: 22:20 | Molto Nuvoloso | 18 | 16 | 88 | 1014 | 10 | O 22.2 | |
| Ieri h: 21:50 | Molto Nuvoloso | 18 | 16 | 88 | 1014 | 10 | O 22.2 | |
| Ieri h: 21:20 | Molto Nuvoloso | 18 | 16 | 88 | 1014 | 10 | O 25.9 | |
| Ieri h: 20:50 | Poco Nuvoloso | 18 | 15 | 82 | 1014 | 10 | O 29.6 | |
| Ieri h: 20:20 | Molto Nuvoloso | 18 | 16 | 88 | 1013 | 10 | O 25.9 | |
| Ieri h: 19:50 | Molto Nuvoloso | 18 | 16 | 88 | 1013 | 10 | O 25.9 | |
| Ieri h: 19:20 | Nuvoloso | 18 | 16 | 88 | 1013 | 10 | O 24 | |
| Ieri h: 18:50 | Molto Nuvoloso | 18 | 16 | 88 | 1013 | 10 | O 25.9 | |
| Ieri h: 18:20 | Poco Nuvoloso | 18 | 16 | 88 | 1013 | 10 | O 25.9 | |
| Ieri h: 17:50 | Sereno | 18 | 16 | 88 | 1013 | 10 | O 24 | |
| Ieri h: 17:20 | Sereno | 19 | 16 | 82 | 1013 | 10 | O 27.8 | |
| Ieri h: 16:50 | Sereno | 19 | 15 | 77 | 1013 | 10 | O 27.8 | |
| Ieri h: 16:20 | Sereno | 19 | 16 | 82 | 1013 | 10 | O 27.8 | |
| Ieri h: 15:50 | Poco Nuvoloso | 19 | 16 | 82 | 1013 | 10 | O 27.8 | |
| Ieri h: 15:20 | Poco Nuvoloso | 19 | 16 | 82 | 1013 | 10 | O 29.6 | |
| Ieri h: 14:50 | Poco Nuvoloso | 19 | 15 | 77 | 1012 | 10 | O 29.6 | |
| Ieri h: 14:20 | Molto Nuvoloso | 19 | 15 | 77 | 1012 | 10 | O 27.8 | |
| Ieri h: 13:50 | Nuvoloso | 19 | 15 | 77 | 1012 | 10 | O 27.8 | |
| Ieri h: 13:20 | Molto Nuvoloso | 19 | 16 | 82 | 1012 | 10 | O 27.8 | |
| Ieri h: 12:50 | Molto Nuvoloso | 18 | 15 | 82 | 1012 | 10 | O 29.6 | |
| Ieri h: 12:20 | Molto Nuvoloso | 18 | 16 | 88 | 1012 | 10 | O 27.8 | |
| Ieri h: 11:50 | Molto Nuvoloso | 18 | 15 | 82 | 1011 | 10 | O 24 | |
| Ieri h: 11:20 | Nuvoloso | 18 | 15 | 82 | 1011 | 10 | O 24 | |
| Ieri h: 10:50 | Nuvoloso | 18 | 16 | 88 | 1011 | 10 | O 20.3 | |
| Ieri h: 10:20 | Molto Nuvoloso | 19 | 16 | 82 | 1011 | 10 | O 18.5 | |
| Ieri h: 09:50 | Nuvoloso | 18 | 15 | 82 | 1010 | 10 | O 20.3 | |
| Ieri h: 09:20 | Molto Nuvoloso | 18 | 15 | 82 | 1010 | 10 | O 20.3 | |
| Ieri h: 08:50 | Nuvoloso | 17 | 15 | 88 | 1010 | 10 | O 22.2 | |
| Ieri h: 08:20 | Molto Nuvoloso | 17 | 15 | 88 | 1010 | 10 | O 24 | |
| Ieri h: 07:50 | Nuvoloso | 17 | 15 | 88 | 1010 | 10 | O 24 | |
| Ieri h: 07:20 | Molto Nuvoloso | 17 | 15 | 88 | 1009 | 10 | O 22.2 | |
| Ieri h: 06:50 | Molto Nuvoloso | 17 | 15 | 88 | 1009 | 10 | O 24 | |
| Ieri h: 06:20 | Molto Nuvoloso | 17 | 15 | 88 | 1009 | 10 | O 22.2 | |
| Ieri h: 05:50 | Molto Nuvoloso | 17 | 15 | 88 | 1009 | 10 | O 22.2 | |
| Ieri h: 05:20 | Nuvoloso | 17 | 15 | 88 | 1009 | 10 | O 22.2 | |
| Ieri h: 04:50 | Molto Nuvoloso | 17 | 15 | 88 | 1009 | 10 | O 24 | |
| Ieri h: 04:20 | Molto Nuvoloso | 17 | 14 | 82 | 1009 | 10 | O 24 | |
| Ieri h: 03:50 | Nuvoloso | 17 | 14 | 82 | 1009 | 10 | O 24 | |
| Ieri h: 03:20 | Molto Nuvoloso | 17 | 14 | 82 | 1009 | 10 | O 27.8 | |
| Ieri h: 02:50 | Molto Nuvoloso | 17 | 14 | 82 | 1009 | 10 | O 25.9 | |
| Ieri h: 02:20 | Nuvoloso | 17 | 14 | 82 | 1009 | 10 | O 22.2 | |
| Ieri h: 01:50 | Nuvoloso | 17 | 16 | 93 | 1009 | 10 | O/SO 22.2 | |
| Ieri h: 01:20 | Coperto | 17 | 15 | 88 | 1009 | 10 | SO 20.3 | |
| Ieri h: 00:50 | Molto Nuvoloso | 17 | 14 | 82 | 1009 | 10 | SO 16.7 | |



